Location: Kampong Paya Jaras Dalam
(3.1833°N, 101.5500°E)
Time: 05:24:46
(UTC+00:00)

ARIANE 5 R/B - Pass Details

Date: 15 May 2026
Orbit: 519 x 17421 km, 6.8° (Epoch: 7 June)

Event Time Altitude Azimuth Distance (km) Brightness Sun altitude
Exits shadow 22:17:44 13° 278° (W) 1,573 3.1 -11.3°
Maximum altitude 22:20:36 85° 6° (N) 536 1.3 -10.6°
Drops below altitude 10° 22:25:00 10° 95° (E) 2,362 5.7 -9.6°
Sets 22:28:35 0° 96° (E) 4,114 7.1 -8.8°
